CW9451 Weather Reports


Display with metric or nautical units.
time (UTC)temp
F
wind
direction
speed
MPH
gust
MPH
rain 1hr
in
rain 24hr
in
rain mn
in
humidity
%
barometer
mb
20260506043908 57 0.0 0.0 0.00 0.00 0.00 10 1006.6
20260506041909 57 0.0 0.0 0.00 0.00 0.00 10 1006.5
20260506035905 57 0.0 0.0 0.00 0.00 0.00 10 1006.5
20260506034904 57 0.0 0.0 0.00 0.00 0.00 10 1006.6
20260506033905 57 0.0 0.0 0.00 0.00 0.00 10 1006.7
20260506032909 57 0.0 0.0 0.00 0.00 0.00 10 1006.8
20260506030908 57 0.0 0.0 0.00 0.00 0.00 10 1006.9
20260506024909 57 0.0 0.0 0.00 0.00 0.00 10 1006.9
20260506022903 58 0.0 0.0 0.00 0.00 0.00 10 1007.3
20260506021903 58 0.0 0.0 0.00 0.00 0.00 10 1007.2
20260506020904 58 0.0 0.0 0.00 0.00 0.00 10 1007.2
20260506015905 58 0.0 0.0 0.00 0.00 0.00 10 1007.3
20260506014905 58 0.0 0.0 0.00 0.00 0.00 10 1007.4
20260506013904 58 0.0 0.0 0.00 0.00 0.00 10 1007.5
20260506012905 58 0.0 0.0 0.00 0.00 0.00 10 1007.5
20260506011904 58 0.0 0.0 0.00 0.00 0.00 10 1007.6
20260506010904 58 0.0 0.0 0.00 0.00 0.00 10 1007.5
20260506005904 58 0.0 0.0 0.00 0.00 0.00 10 1007.6
20260506004903 58 0.0 0.0 0.00 0.00 0.00 10 1007.7
20260506003908 58 0.0 0.0 0.00 0.00 0.00 10 1007.8
20260506000904 58 0.0 0.0 0.00 0.00 0.00 10 1007.8
20260505235904 58 0.0 0.0 0.00 0.00 0.00 10 1007.8
20260505234904 59 0.0 0.0 0.00 0.00 0.00 10 1008.2
20260505233904 59 0.0 0.0 0.00 0.00 0.00 10 1008.3
20260505232904 59 0.0 0.0 0.00 0.00 0.00 10 1008.2
20260505231908 59 0.0 0.0 0.00 0.00 0.00 10 1008.3
20260505225905 59 0.0 0.0 0.00 0.00 0.00 10 1008.3
20260505224904 59 0.0 0.0 0.00 0.00 0.00 10 1008.2
20260505223903 59 0.0 0.0 0.00 0.00 0.00 10 1008.2
20260505222903 59 0.0 0.0 0.00 0.00 0.00 10 1008.3
20260505221903 59 0.0 0.0 0.00 0.00 0.00 10 1008.3
20260505220904 59 0.0 0.0 0.00 0.00 0.00 10 1008.3
20260505215905 59 0.0 0.0 0.00 0.00 0.00 10 1008.3
20260505214904 60 0.0 0.0 0.00 0.00 0.00 10 1008.5
20260505213904 60 0.0 0.0 0.00 0.00 0.00 10 1008.6
20260505212904 60 0.0 0.0 0.00 0.00 0.00 10 1008.6
20260505211904 60 0.0 0.0 0.00 0.00 0.00 10 1008.6
20260505210904 60 0.0 0.0 0.00 0.00 0.00 10 1008.6
20260505205904 60 0.0 0.0 0.00 0.00 0.00 10 1008.5
20260505204908 61 0.0 0.0 0.00 0.00 0.00 10 1008.7
20260505202904 61 0.0 0.0 0.00 0.00 0.00 10 1008.7
20260505201909 61 0.0 0.0 0.00 0.00 0.00 10 1008.7
20260505195904 61 0.0 0.0 0.00 0.00 0.00 10 1008.6
20260505194904 61 0.0 0.0 0.00 0.00 0.00 10 1008.4
20260505193904 61 0.0 0.0 0.00 0.00 0.00 10 1008.5
20260505192903 61 0.0 0.0 0.00 0.00 0.00 10 1008.4
20260505191904 62 0.0 0.0 0.00 0.00 0.00 10 1008.4
20260505190904 62 0.0 0.0 0.00 0.00 0.00 10 1008.4
20260505185904 62 0.0 0.0 0.00 0.00 0.00 10 1008.2
20260505184904 62 0.0 0.0 0.00 0.00 0.00 10 1008.3
20260505183905 62 0.0 0.0 0.00 0.00 0.00 99 1008.3
20260505182904 62 0.0 0.0 0.00 0.00 0.00 98 1008.3
20260505181904 62 0.0 0.0 0.00 0.00 0.00 98 1008.1
20260505180909 62 0.0 0.0 0.00 0.00 0.00 97 1008.1
20260505174904 63 0.0 0.0 0.00 0.00 0.00 97 1008.3
20260505173904 63 0.0 0.0 0.00 0.00 0.00 97 1008.1
20260505172903 63 0.0 0.0 0.00 0.00 0.00 96 1008.1
20260505171904 64 0.0 0.0 0.00 0.00 0.00 96 1008.2
20260505170904 64 0.0 0.0 0.00 0.00 0.00 97 1008.3
20260505165905 64 0.0 0.0 0.00 0.00 0.00 96 1008.3
20260505164904 64 0.0 0.0 0.00 0.00 0.00 96 1008.2
20260505163903 64 0.0 0.0 0.00 0.00 0.00 96 1008.3
20260505162903 64 0.0 0.0 0.00 0.00 0.00 95 1008.4
20260505161904 65 0.0 0.0 0.00 0.00 0.00 93 1008.3
20260505160904 65 0.0 0.0 0.00 0.00 0.00 94 1008.3
20260505152905 66 0.0 0.0 0.00 0.00 0.00 93 1008.6
20260505151904 66 0.0 0.0 0.00 0.00 0.00 92 1008.6
20260505150903 66 0.0 0.0 0.00 0.00 0.00 91 1008.5
20260505124908 73 0.0 0.0 0.00 0.00 0.00 76 1009.4
20260505122904 71 0.0 0.0 0.00 0.00 0.00 81 1009.6
20260505121903 71 0.0 0.0 0.00 0.00 0.00 80 1009.7
20260505120904 70 0.0 0.0 0.00 0.00 0.00 81 1009.6
20260505115904 70 0.0 0.0 0.00 0.00 0.00 83 1009.8
20260505114904 71 0.0 0.0 0.00 0.00 0.00 83 1010.1
20260505113904 71 0.0 0.0 0.00 0.00 0.00 83 1010.2
20260505112905 70 0.0 0.0 0.00 0.00 0.00 87 1010.2
20260505111904 69 0.0 0.0 0.00 0.00 0.00 84 1010.0
20260505110905 69 0.0 0.0 0.00 0.00 0.00 86 1010.3
20260505101904 66 0.0 0.0 0.00 0.00 0.00 96 1011.3
20260505100904 66 0.0 0.0 0.00 0.00 0.00 99 1011.4
20260505095904 66 0.0 0.0 0.00 0.00 0.00 99 1011.4
20260505094905 65 0.0 0.0 0.00 0.00 0.00 99 1011.4
20260505093905 65 0.0 0.0 0.00 0.00 0.00 10 1011.4
20260505092904 65 0.0 0.0 0.00 0.00 0.00 10 1011.5
20260505091909 64 0.0 0.0 0.00 0.00 0.00 10 1011.5
20260505085904 64 0.0 0.0 0.00 0.00 0.00 10 1011.7
20260505084904 63 0.0 0.0 0.00 0.00 0.00 10 1011.8
20260505083904 63 0.0 0.0 0.00 0.00 0.00 10 1011.7
20260505082904 63 0.0 0.0 0.00 0.00 0.00 10 1011.7
20260505081905 63 0.0 0.0 0.00 0.00 0.00 10 1011.8
20260505080905 62 0.0 0.0 0.00 0.00 0.00 10 1011.7
20260505075904 62 0.0 0.0 0.00 0.00 0.00 10 1011.9
20260505074904 62 0.0 0.0 0.00 0.00 0.00 10 1011.9
20260505073905 62 0.0 0.0 0.00 0.00 0.00 10 1011.9
20260505072904 62 0.0 0.0 0.00 0.00 0.00 10 1012.0
20260505071904 62 0.0 0.0 0.00 0.00 0.00 10 1012.0
20260505070903 62 0.0 0.0 0.00 0.00 0.00 10 1012.1
20260505065908 62 0.0 0.0 0.00 0.00 0.00 10 1012.1
20260505063904 61 0.0 0.0 0.00 0.00 0.00 10 1012.2
20260505062904 61 0.0 0.0 0.00 0.00 0.00 10 1012.2
20260505061904 61 0.0 0.0 0.00 0.00 0.00 10 1012.3
20260505060905 61 0.0 0.0 0.00 0.00 0.00 10 1012.3
20260505055904 61 0.0 0.0 0.00 0.00 0.00 10 1012.4
20260505054909 61 0.0 0.0 0.00 0.00 0.00 10 1012.5
20260505052904 61 0.0 0.0 0.00 0.00 0.00 10 1012.5
20260505051903 61 0.0 0.0 0.00 0.00 0.00 10 1012.3
20260505050903 61 0.0 0.0 0.00 0.00 0.00 10 1012.4